Regional Weather Roundup
Issued by NWS Green Bay, WI

Home | Current Version | Previous Version | Text Only | Print | Product List | Glossary On
Versions: 1 2 3 4 5 6 7 8 9 10 11 12 13 14 15 16 17 18 19 20 21 22 23 24 25 26 27 28 29 30 31 32 33 34 35 36 37 38 39 40 41 42 43 44 45 46 47 48 49 50
000
ASUS43 KGRB 020659
RWRGRB

NORTH-CENTRAL AND NORTHEAST WISCONSIN REGIONAL WEATHER ROUNDUP
NATIONAL WEATHER SERVICE GREEN BAY WI
200 AM CDT TUE SEP 02 2014

WIZ005-009-010>012-018-019-020800-
NORTH CENTRAL WISCONSIN

CITY           SKY/WX    TMP DP  RH WIND       PRES   REMARKS
IRONWOOD       NOT AVBL
MANITOWISH WTR NOT AVBL
ARBOR VITAE    NOT AVBL
EAGLE RIVER    NOT AVBL
LAND O LAKES   NOT AVBL
RHINELANDER    CLEAR     51  50  96 CALM      29.83S
PHILLIPS       NOT AVBL
ANTIGO         NOT AVBL
TOMAHAWK       NOT AVBL
MERRILL        NOT AVBL
$$

WIZ013-073-020800-
NORTHEAST WISCONSIN

CITY           SKY/WX    TMP DP  RH WIND       PRES   REMARKS
IRON MOUNTAIN  CLEAR     54  52  93 CALM      29.79R
MARINETTE      CLEAR     59  55  88 CALM      29.79S
$$

WIZ017-030-035>037-045-020800-
CENTRAL WISCONSIN

CITY           SKY/WX    TMP DP  RH WIND       PRES   REMARKS
MEDFORD        NOT AVBL
WAUSAU         CLEAR     55  54  96 SE3       29.82F
MOSINEE        NOT AVBL
MARSHFIELD     CLEAR     55  53  93 SW6       29.85S
WISC RAPIDS    FOG       56  55  97 CALM      29.86S VSB 3/4
STEVENS POINT  NOT AVBL
WAUPACA        NOT AVBL
SHAWANO        NOT AVBL
CLINTONVILLE   NOT AVBL
$$

WIZ038-039-048-051-020800-
FOX VALLEY

CITY           SKY/WX    TMP DP  RH WIND       PRES   REMARKS
NWS GREEN BAY  CLEAR     58  57  97 W6        29.83R
APPLETON       NOT AVBL
OSHKOSH        PTCLDY    63  60  90 W3        29.84S
FOND DU LAC    PTCLDY    62  59  90 W5        29.85R
$$

WIZ022-050-052-020800-
EAST CENTRAL WISCONSIN

CITY           SKY/WX    TMP DP  RH WIND       PRES   REMARKS
STURGEON BAY   CLEAR     63  55  77 W6        29.82R
MANITOWOC      NOT AVBL
SHEBOYGAN      NOT AVBL
$$

LMZ563-521-522-541>543-020800-
LAKESHORE

STATION/POSITION TIME  TEMP    WIND        PRES    VSBY  WAVE
                       AIR SEA DIR/SP/G                  HT/PER
                 (UTC) (F)     (DEG/KT/KT) (MB)    (MI)  (FT/S)
SHEBOYGAN LKSHOR 0600   65 51  250/  7/  8 1010.1R
KEWAUNEE LKSHORE 0600   63     290/  4/  5 1008.9R
NORTHPORT PIER   0600   64     240/  5/  6 1008.5S
N MID LAKE BUOY  0600   66 65  230/  6/  6 1008.1R         2/ 6
S GREEN BAY BUOY 0600   67     VRB 14/ 16  1010.5R
CHAMBERS ISLAND  0600   64     200/  3/  7 1008.8R
MENOMINEE LKSHOR 0600   62     260/  7/  9 1009.7R
$$


USA.gov is the U.S. government's official web portal to all federal, state and local government web resources and services.